DW2513 Weather Reports


time (UTC)temp
F
wind
direction
speed
knots
gust
knots
rain 1hr
in
rain 24hr
in
rain mn
in
humidity
%
barometer
mb
20260507020804 48 268 0.0 0.0 0.03 0.57 0.57 85 1004.2
20260507020304 48 268 0.0 0.0 0.02 0.56 0.56 85 1004.2
20260507015805 48 268 0.0 0.0 0.02 0.56 0.56 85 1004.2
20260507015306 48 268 0.0 0.0 0.02 0.56 0.56 84 1004.2
20260507014805 48 268 0.0 0.0 0.03 0.56 0.56 84 1004.2
20260507014304 48 268 0.0 0.9 0.02 0.55 0.55 84 1003.6
20260507012306 49 295 0.0 5.2 0.03 0.55 0.55 84 1003.6
20260507011804 49 47 0.0 0.9 0.03 0.55 0.55 85 1003.6
20260507010804 49 49 0.0 0.9 0.02 0.54 0.54 85 1002.5
20260507010304 50 49 0.0 0.0 0.02 0.54 0.54 85 1002.5
20260507005804 50 48 0.0 0.9 0.02 0.54 0.54 84 1002.5
20260507004805 51 71 0.0 0.0 0.01 0.53 0.53 85 1002.5
20260507003304 51 61 0.0 0.9 0.01 0.53 0.53 84 1002.5
20260507002306 51 38 0.0 2.6 0.01 0.52 0.52 84 1002.5
20260507001804 52 13 0.0 6.1 0.01 0.52 0.52 85 1002.3
20260507001305 52 108 0.9 2.6 0.01 0.52 0.52 85 1000.6
20260507000306 52 255 0.9 4.3 0.01 0.52 0.52 85 1000.6
20260506235804 53 27 0.0 0.0 0.01 0.52 0.52 85 1000.6
20260506235306 53 27 0.0 4.3 0.02 0.52 0.52 85 1000.6
20260506234804 53 41 0.0 0.0 0.03 0.52 0.52 85 1000.6
20260506234305 53 41 0.0 0.0 0.03 0.52 0.52 85 1000.6
20260506233805 54 77 0.9 2.6 0.03 0.52 0.52 85 1000.6
20260506231804 56 35 0.0 2.6 0.02 0.51 0.51 85 1000.6
20260506230805 57 113 0.0 2.6 0.02 0.51 0.51 85 1000.6
20260506230304 58 190 0.0 0.0 0.02 0.51 0.51 85 1000.6
20260506225804 58 190 0.9 5.2 0.02 0.51 0.51 85 1000.1
20260506225305 59 236 0.0 0.9 0.01 0.50 0.50 87 1000.1
20260506224304 59 242 0.0 0.0 0.02 0.49 0.49 86 1000.1
20260506223304 59 245 0.0 0.0 0.07 0.49 0.49 86 1000.1
20260506221804 59 217 0.0 1.7 0.07 0.49 0.49 86 1000.0
20260506220804 59 150 0.0 0.0 0.08 0.49 0.49 86 1000.0
20260506220305 59 150 0.0 0.0 0.08 0.49 0.49 86 1000.0
20260506215306 59 131 0.0 1.7 0.08 0.49 0.49 86 1000.0
20260506214304 60 275 0.9 4.3 0.06 0.47 0.47 85 1000.0
20260506212804 60 230 0.9 2.6 0.01 0.43 0.42 86 1000.0
20260506210305 60 194 0.0 2.6 0.03 0.45 0.41 87 1000.0
20260506205805 60 194 0.9 2.6 0.04 0.47 0.41 87 1000.0
20260506205306 60 201 0.0 1.7 0.05 0.47 0.41 87 1000.0
20260506204804 60 207 0.0 0.0 0.06 0.47 0.41 87 1000.0
20260506204305 60 191 0.0 2.6 0.07 0.47 0.41 87 1000.0
20260506203805 60 191 0.0 0.0 0.09 0.47 0.41 87 1000.0
20260506203305 60 191 0.0 0.0 0.10 0.47 0.41 87 1000.5
20260506201804 60 246 0.0 0.0 0.17 0.46 0.40 87 1000.5
20260506201304 60 246 0.0 0.0 0.17 0.45 0.39 87 1000.5
20260506194804 60 315 0.0 0.0 0.15 0.41 0.35 86 1000.5
20260506194304 60 315 0.0 0.0 0.15 0.40 0.34 85 1001.1
20260506193805 60 319 0.0 0.0 0.14 0.38 0.32 85 1001.1
20260506193304 60 306 0.0 0.0 0.13 0.37 0.31 85 1001.1
20260506192306 60 239 0.0 1.7 0.10 0.32 0.26 85 1001.1
20260506190805 61 238 0.0 0.0 0.07 0.27 0.21 85 1001.1
20260506190306 60 238 0.0 0.0 0.07 0.27 0.21 85 1001.1
20260506185306 60 171 0.0 0.0 0.07 0.26 0.20 85 1001.1
20260506183304 60 171 0.0 0.0 0.08 0.24 0.18 84 1001.1
20260506182306 60 171 0.0 1.7 0.07 0.22 0.16 84 1002.0
20260506181805 60 171 0.0 1.7 0.07 0.21 0.15 84 1002.0
20260506175805 60 171 0.0 1.7 0.08 0.20 0.14 83 1002.0
20260506175306 60 171 0.0 0.0 0.08 0.19 0.13 83 1002.0
20260506174304 60 188 0.0 2.6 0.08 0.18 0.12 83 1002.3
20260506172306 60 225 0.0 0.9 0.07 0.15 0.09 82 1002.6
20260506171304 61 225 0.0 0.0 0.06 0.13 0.07 81 1002.6
20260506170305 61 118 0.0 0.0 0.06 0.13 0.07 81 1002.6
20260506163805 61 118 0.0 0.0 0.02 0.09 0.03 79 1002.6
20260506163304 61 118 0.0 0.0 0.02 0.09 0.03 78 1002.6
20260506162307 61 101 0.0 0.0 0.02 0.08 0.02 77 1002.7
20260506160304 61 101 0.0 0.0 0.01 0.07 0.01 75 1002.7
20260506155306 61 101 0.0 0.0 0.01 0.07 0.01 75 1003.9
20260506153304 62 101 0.0 0.0 0.01 0.07 0.01 74 1003.9
20260506152804 62 101 0.0 0.0 0.01 0.07 0.01 72 1003.9
20260506152306 62 101 0.0 0.0 0.00 0.06 0.00 71 1003.9
20260506151804 62 101 0.0 0.0 0.00 0.06 0.00 71 1003.9
20260506151304 62 101 0.0 0.0 0.00 0.06 0.00 70 1003.9
20260506150805 62 101 0.0 0.0 0.00 0.06 0.00 69 1003.9
20260506145804 62 103 0.0 0.0 0.00 0.06 0.00 68 1003.7
20260506143304 62 209 0.0 0.0 0.00 0.06 0.00 67 1003.7
20260506142804 62 208 0.0 0.0 0.00 0.06 0.00 67 1003.7
20260506141804 61 208 0.0 0.0 0.00 0.06 0.00 68 1003.7
20260506141304 61 205 0.0 0.0 0.00 0.06 0.00 68 1003.7
20260506140304 61 330 0.0 1.7 0.00 0.06 0.00 69 1003.7
20260506135306 61 167 0.0 2.6 0.00 0.06 0.00 69 1004.1
20260506134804 60 129 0.0 0.0 0.00 0.06 0.00 69 1004.1
20260506133805 60 129 0.0 0.0 0.00 0.06 0.00 70 1004.1
20260506131804 59 130 0.0 0.9 0.00 0.06 0.00 72 1004.1
20260506130804 59 258 0.0 0.9 0.00 0.06 0.00 72 1004.1
20260506125805 59 269 0.0 0.0 0.00 0.06 0.00 72 1004.1
20260506125306 59 269 0.0 0.0 0.00 0.06 0.00 72 1004.1
20260506123805 58 100 0.9 1.7 0.00 0.06 0.00 73 1004.1
20260506122306 58 205 0.0 0.0 0.00 0.06 0.00 73 1004.2
20260506121804 58 317 0.0 1.7 0.00 0.06 0.00 74 1004.2
20260506120304 57 26 0.0 0.0 0.00 0.06 0.00 74 1004.2
20260506115804 57 25 0.0 1.7 0.00 0.06 0.00 75 1004.2
20260506115307 57 26 0.0 0.0 0.00 0.06 0.00 75 1004.2
20260506113804 56 44 0.0 0.0 0.00 0.06 0.00 78 1004.2
20260506112306 56 42 0.0 0.0 0.00 0.06 0.00 78 1004.2
20260506111304 56 42 0.0 0.0 0.00 0.06 0.00 78 1004.2
20260506110305 55 42 0.0 0.0 0.00 0.06 0.00 78 1004.2
20260506103804 54 42 0.0 0.0 0.00 0.06 0.00 78 1004.2
20260506101804 54 42 0.0 0.0 0.00 0.06 0.00 76 1004.2
20260506101304 55 42 0.0 0.0 0.00 0.06 0.00 76 1004.2
20260506100805 55 42 0.0 0.0 0.00 0.06 0.00 76 1004.2
20260506100304 55 42 0.0 0.0 0.00 0.06 0.00 75 1004.2
20260506095804 55 42 0.0 0.0 0.00 0.06 0.00 75 1004.2
20260506094305 55 42 0.0 0.0 0.00 0.06 0.00 74 1004.2
20260506093805 55 42 0.0 0.0 0.00 0.06 0.00 74 1004.2
20260506091804 56 42 0.0 0.0 0.00 0.06 0.00 72 1004.2
20260506091304 56 42 0.0 0.0 0.00 0.06 0.00 72 1004.2
20260506090804 56 42 0.0 0.0 0.00 0.06 0.00 72 1004.2
20260506090304 56 42 0.0 0.0 0.00 0.06 0.00 71 1004.2
20260506084805 56 42 0.0 0.0 0.00 0.06 0.00 71 1004.2
20260506084304 56 42 0.0 0.0 0.00 0.06 0.00 71 1004.2
20260506083805 57 42 0.0 0.0 0.00 0.06 0.00 71 1004.4
20260506081805 57 42 0.0 0.0 0.00 0.06 0.00 72 1004.3
20260506080804 57 42 0.0 0.0 0.00 0.06 0.00 72 1004.3
20260506080304 57 42 0.0 0.0 0.00 0.06 0.00 72 1004.3
20260506071805 58 42 0.0 0.0 0.00 0.06 0.00 70 1004.3
20260506070305 59 42 0.0 1.7 0.00 0.06 0.00 68 1004.3
20260506062305 59 43 0.0 0.0 0.00 0.06 0.00 69 1004.3
20260506060304 60 289 0.0 0.0 0.00 0.06 0.00 69 1004.3
20260506050804 60 305 0.0 0.0 0.00 0.06 0.00 73 1004.4
20260506050305 60 305 0.0 0.0 0.00 0.06 0.00 74 1004.4
20260506044804 60 86 0.0 0.0 0.00 0.06 0.00 74 1004.0
20260506042804 60 86 0.0 0.0 0.00 0.06 0.00 74 1004.0
20260506041304 61 86 0.0 0.0 0.00 0.06 0.00 74 1004.0
20260506040821 60 86 0.0 0.0 0.00 0.06 0.00 74 1004.0
20260506040305 60 86 0.0 0.0 0.00 0.06 0.00 75 1004.0
20260506035804 60 86 0.0 0.0 0.00 0.06 0.06 76 1004.0
20260506034804 60 86 0.0 0.0 0.00 0.06 0.06 76 1004.1
20260506032306 60 86 0.0 0.0 0.00 0.06 0.06 75 1004.1
20260506031804 60 86 0.0 0.0 0.00 0.06 0.06 75 1004.1
20260506030304 61 86 0.0 0.0 0.00 0.06 0.06 74 1004.0
20260506025804 61 86 0.0 0.0 0.00 0.06 0.06 74 1004.0
20260506025306 61 86 0.0 0.0 0.00 0.06 0.06 74 1004.0
20260506024804 61 86 0.0 0.0 0.00 0.06 0.06 74 1003.9
20260506023805 61 86 0.0 0.0 0.00 0.06 0.06 74 1003.9
20260506023305 61 86 0.0 0.0 0.00 0.06 0.06 73 1003.9
20260506022805 61 86 0.0 0.0 0.00 0.06 0.06 73 1003.9
20260506021804 61 86 0.0 0.0 0.00 0.06 0.06 74 1003.8